Terminal Aerodrome Forecast
Issued by NWS Springfield, MO

Home | Current Version | Previous Version | Text Only | Print | Product List | Glossary On
Versions: 1 2 3 4 5 6 7 8 9 10 11 12 13
000
FTUS43 KSGF 272320
TAFSGF
TAF
KSGF 272320Z 2800/2824 13007KT P6SM BKN200
     FM281400 16012G20KT P6SM SCT200
     FM281800 18010KT P6SM SCT200=

USA.gov is the U.S. government's official web portal to all federal, state and local government web resources and services.